This is the latest recevied weather packets stored in our database for station/object SK4BW-10. If no packets are shown the sender has not sent any weather packets the latest 10 day(s).
| Time | Temp. | Humidity | Pressure | Rain* | Wind** | Luminosity | Snow |
|---|---|---|---|---|---|---|---|
| 1777954380 | -0.56° C | 84% | 1003.9 hPa | - | - | - | - |
| 1777953480 | -0.56° C | 86% | 1003.8 hPa | - | - | - | - |
| 1777952579 | -0.56° C | 86% | 1003.5 hPa | - | - | - | - |
| 1777951678 | -0.56° C | 88% | 1003.6 hPa | - | - | - | - |
| 1777950777 | -0.56° C | 96% | 1003.4 hPa | - | - | - | - |
| 1777949876 | -0.56° C | 100% | 1003.2 hPa | - | - | - | - |
| 1777948975 | -0.56° C | 100% | 1003 hPa | - | - | - | - |
| 1777948075 | -0.56° C | 100% | 1002.9 hPa | - | - | - | - |
| 1777947175 | -0.56° C | 100% | 1002.7 hPa | - | - | - | - |
| 1777946274 | -0.56° C | 100% | 1002.5 hPa | - | - | - | - |
| 1777945374 | 0° C | 100% | 1002.5 hPa | - | - | - | - |
| 1777944474 | 0° C | 100% | 1002.4 hPa | - | - | - | - |
| 1777943573 | 0° C | 100% | 1002.3 hPa | - | - | - | - |
| 1777942673 | 0° C | 100% | 1002.2 hPa | - | - | - | - |
| 1777941772 | 0° C | 100% | 1002.2 hPa | - | - | - | - |
| 1777940871 | 0.56° C | 100% | 1002.2 hPa | - | - | - | - |
| 1777939970 | 0.56° C | 100% | 1002.1 hPa | - | - | - | - |
| 1777939069 | 0.56° C | 100% | 1002 hPa | - | - | - | - |
| 1777938169 | 1.11° C | 100% | 1001.9 hPa | - | - | - | - |
| 1777937268 | 1.11° C | 99% | 1001.8 hPa | - | - | - | - |
| 1777936366 | 1.11° C | 99% | 1001.7 hPa | - | - | - | - |
| 1777935465 | 1.67° C | 99% | 1001.5 hPa | - | - | - | - |
| 1777934564 | 2.22° C | 98% | 1001.6 hPa | - | - | - | - |
| 1777933664 | 2.22° C | 97% | 1001.4 hPa | - | - | - | - |
| 1777932763 | 2.78° C | 94% | 1001.3 hPa | - | - | - | - |
* Rain since midnight (hover to see other rain measurements)
** Current wind speed in m/s (hover to see current wind gust speed)